Regional Weather Roundup
Issued by NWS Huntsville, AL

Current Version | Previous Version | Graphics & Text | Print | Product List | Glossary On
Versions: 1 2 3 4 5 6 7 8 9 10 11 12 13 14 15 16 17 18 19 20 21 22 23 24 25 26 27 28 29 30 31 32 33 34 35 36 37 38 39 40 41 42 43 44 45 46 47 48 49 50
000
ASUS44 KHUN 040810
RWRHUN

WEATHER ROUNDUP FOR THE TENNESSEE VALLEY
NATIONAL WEATHER SERVICE HUNTSVILLE AL
300 AM CDT SAT APR 04 2020

ALZ001>004-040900-
NORTHWEST ALABAMA

CITY           SKY/WX    TMP DP  RH WIND       PRES   REMARKS
SHOALS AIRPORT CLOUDY    58  50  75 W3        29.98S
$$

ALZ005>007-016-040900-
NORTH CENTRAL ALABAMA

CITY           SKY/WX    TMP DP  RH WIND       PRES   REMARKS
DECATUR AP     CLOUDY    60  46  59 N6        29.98F
HUNTSVILLE AP  CLOUDY    61  46  57 N5        29.97F
HUN NWS/UAH      N/A     63  42  45 N5          N/A
MERIDIANVILLE  CLOUDY    59  50  72 CALM      29.98F
VINEMONT AP    FAIR      53  47  82 CALM      30.00S
$$

ALZ008>010-040900-
NORTHEAST ALABAMA

CITY           SKY/WX    TMP DP  RH WIND       PRES   REMARKS
ALBERTVILLE    CLOUDY    55  48  76 SW3       29.98R
FORT PAYNE     CLOUDY    52  47  84 CALM      29.97R
SCOTTSBORO AP  CLOUDY    57  52  82 CALM      29.98S
$$

TNZ076-096-097-040900-
SOUTHEASTERN MIDDLE TENNESSEE

CITY           SKY/WX    TMP DP  RH WIND       PRES   REMARKS
FAYETTEVILLE   CLOUDY    61  41  48 N7        29.98S
TULLAHOMA      CLOUDY    55  45  67 CALM      29.99S
WINCHESTER     CLOUDY    57  46  67 CALM      29.98S
$$

...SURROUNDING SITES...

CITY           SKY/WX    TMP DP  RH WIND       PRES   REMARKS
ATLANTA        MOCLDY    60  42  51 NW5       29.94F
ANNISTON       FAIR      51  49  92 SW3       29.97S
BIRMINGHAM     MOCLDY    55  50  83 CALM      30.00R
CHATTANOOGA    MOCLDY    57  49  74 CALM      29.97S
CORINTH        FAIR      55  48  76 CALM      30.00S
DALTON         CLOUDY    55  46  71 CALM      29.97S
GADSDEN        FAIR      50  48  93 CALM      29.98S
GOLDEN TRNGL   FAIR      56  55  97 CALM      30.00F
HALEYVILLE     FAIR      52  51  97 CALM      30.00F
JACKSON TN     CLOUDY    55  52  89 W3        30.02S
MEMPHIS        FAIR      55  52  89 CALM      30.01F
NASHVILLE      CLOUDY    60  46  59 CALM      30.00S
OXFORD MS      FAIR      52  50  93 CALM      30.02F
ROME           FAIR      55  47  74 CALM      29.94F
SAVANNAH       CLOUDY    55  52  88 CALM      29.99S
SELMER         CLOUDY    55  48  76 CALM      30.00S
TUPELO         FAIR      57  48  72 N5        29.99F
TUSCALOOSA     FAIR      57  52  83 CALM      29.99R
$$




USA.gov is the U.S. government's official web portal to all federal, state and local government web resources and services.